Kezdőlap
METAR-TAF:

METAR-TAF

Repülőterek :

Hwange National Park, Zimbabwe

földrajzi szélesség: 18-38S, földrajzi hosszúság: 027-00E, magasság: 1079 m

Jelenlegi meteorológiai megfigyelések

A jelentés 4 órával és 41 perccel ezelõtt készült, 12:00 UTC
Keleti szél 4 kt
Hőmérséklet 23°C
Páratartalom 29%
Légköri nyomás 1020 hPa
Látótávolság 10 km, vagy több
felhőtlen 1500 m magasságban, és nincs gomolyfelhõ

METAR: FVWN 181200Z 09004KT CAVOK 23/04 Q1020 NOSIG

Idő: 18:41 (16:41 UTC)


TAF: hiányzik

Meteorológiai megfigyelések és előrejelzések több, mint 4000 repülőtéren (METAR és TAF jelentéseket).

A térképen piros és sárga pontok jelzik az elérhető meteorológiai állomásokat.

Mozgassa az egeret a pont fölött, hogy megjelenjen az állomás neve.

Azután kattintson az időjárási megfigyelések és előrejelzések megtekintéséhez.

A térkép megváltoztatása: kattintson a fekete keresztel jelölt zöld gombra ráközelítéshez, a vonallal jelölt zöld gombra távolításhoz, vagy a zöld nyilakra a szomszédos térképek eléréséhez.


METAR-TAF: